Salem, OR

8:38 AM PST on December 05, 2016 (GMT -0800)
McNary

Weather History for KSLE - August, 2013

Change the Weather History Date:

Thursday, August 22, 2013

  Actual Average Record
Temperature  
Mean Temperature 73 °F 67 °F  
Max Temperature 86 °F 82 °F 100 °F (1942)
Min Temperature 59 °F 52 °F 39 °F (1973)
Degree Days  
Heating Degree Days 0 1  
Month to date heating degree days 2 19  
Since 1 June heating degree days 83 179  
Since 1 July heating degree days 4 49  
Cooling Degree Days 8 3  
Month to date cooling degree days 138 81  
Year to date cooling degree days 377 227  
Since 1 June cooling degree days 367 218  
Growing Degree Days 22 (Base 50)    
Moisture  
Dew Point 55 °F    
Average Humidity 56    
Maximum Humidity 78    
Minimum Humidity 34    
Precipitation  
Precipitation T in 0.01 in 0.71 in (1925)
Month to date precipitation 0.02 0.25  
Year to date precipitation 11.63 21.80  
Snow  
Snow 0.00 in - - ()
Month to date snowfall 0.0  
Since 1 June snowfall 0.0  
Snow Depth 0.00 in    
Sea Level Pressure  
Sea Level Pressure 29.87 in    
Wind  
Wind Speed 2 mph (SW)    
Max Wind Speed 9 mph    
Max Gust Speed -    
Visibility 10 miles    
Events Rain    
T = Trace of Precipitation, MM = Missing Value Source: NWS Daily Summary

Daily Weather History Graph

Daily Weather History Graph

Search for Another Location

Airport or City:

Trip Planner

Search our weather history database for the weather conditions in past years. The results will help you decide how hot, cold, wet, or windy it might be!

Date:

Astronomy

Aug. 22, 2013 Rise Set
Actual Time 6:22 AM PDT 8:06 PM PDT
Civil Twilight 5:51 AM PDT 8:37 PM PDT
Nautical Twilight 5:13 AM PDT 9:14 PM PDT
Astronomical Twilight 4:32 AM PDT 9:55 PM PDT
Moon 8:44 PM PDT (8/22) 8:25 AM PDT (8/22)
Length of Visible Light 14h 45m
Length of Day
13h 43m
Waning Gibbous, 96% of the Moon is Illuminated
Aug 22
Waning Gibbous
Aug 28
Last Quarter
Sep 5
New
Sep 12
First Quarter
Sep 19
Full

Hourly Weather History & Observations

Time (PDT) Temp. Heat Index Dew Point Humidity Pressure Visibility Wind Dir Wind Speed Gust Speed Precip Events Conditions
12:56 AM 69.1 °F - 54.0 °F 58% 29.86 in 10.0 mi Calm Calm - N/A   Clear
1:56 AM 66.9 °F - 54.0 °F 63% 29.87 in 10.0 mi Calm Calm - N/A   Clear
2:56 AM 64.0 °F - 54.0 °F 70% 29.86 in 10.0 mi Calm Calm - N/A   Clear
3:56 AM 64.9 °F - 54.0 °F 68% 29.86 in 10.0 mi NW 3.5 mph - N/A   Clear
4:56 AM 63.0 °F - 53.1 °F 70% 29.86 in 10.0 mi Calm Calm - N/A   Clear
5:56 AM 60.1 °F - 54.0 °F 80% 29.86 in 10.0 mi Calm Calm - N/A   Clear
6:56 AM 62.1 °F - 54.0 °F 75% 29.88 in 10.0 mi Calm Calm - N/A   Clear
7:56 AM 64.9 °F - 57.0 °F 75% 29.88 in 10.0 mi SW 3.5 mph - N/A   Mostly Cloudy
8:56 AM 69.1 °F - 55.0 °F 61% 29.89 in 10.0 mi SE 3.5 mph - 0.00 in   Clear
9:56 AM 70.0 °F - 55.0 °F 59% 29.89 in 10.0 mi Calm Calm - 0.00 in   Partly Cloudy
10:56 AM 70.0 °F - 54.0 °F 57% 29.89 in 10.0 mi West 4.6 mph - N/A   Clear
11:56 AM 73.9 °F - 55.0 °F 52% 29.88 in 10.0 mi Variable 3.5 mph - N/A   Clear
12:56 PM 75.9 °F - 55.9 °F 50% 29.88 in 10.0 mi Calm Calm - N/A   Clear
1:56 PM 81.0 °F 80.8 °F 55.9 °F 42% 29.88 in 10.0 mi Calm Calm - N/A   Clear
2:56 PM 84.0 °F 82.6 °F 54.0 °F 35% 29.86 in 10.0 mi West 4.6 mph - N/A   Clear
3:56 PM 84.9 °F 83.3 °F 54.0 °F 34% 29.84 in 10.0 mi SSW 4.6 mph - N/A   Clear
4:56 PM 84.0 °F 82.6 °F 54.0 °F 35% 29.84 in 10.0 mi South 9.2 mph - N/A   Clear
5:56 PM 82.9 °F 82.1 °F 55.9 °F 39% 29.83 in 10.0 mi South 4.6 mph - N/A   Clear
6:56 PM 79.0 °F - 57.0 °F 47% 29.83 in 10.0 mi West 6.9 mph - N/A   Scattered Clouds
7:56 PM 75.9 °F - 55.0 °F 48% 29.85 in 10.0 mi West 3.5 mph - N/A   Scattered Clouds
8:56 PM 72.0 °F - 54.0 °F 53% 29.88 in 10.0 mi SW 6.9 mph - N/A   Mostly Cloudy
9:56 PM 69.1 °F - 54.0 °F 58% 29.90 in 10.0 mi SW 9.2 mph - N/A   Overcast
10:56 PM 66.0 °F - 57.9 °F 75% 29.89 in 10.0 mi Calm Calm - 0.00 in   Overcast
11:56 PM 64.0 °F - 57.9 °F 80% 29.89 in 10.0 mi Calm Calm - 0.01 in Rain Light Rain